Acapulco / Gro., Mexico

3:04 AM CST on February 26, 2017 (GMT -0600)
Gen Juan N Alvarez International

Weather History for MMAA - November, 2013

Change the Weather History Date:

Friday, November 15, 2013

  Actual Average Record
Temperature  
Mean Temperature 83 °F -  
Max Temperature 91 °F 90 °F 93 °F (2014)
Min Temperature 75 °F 72 °F 68 °F (2015)
Cooling Degree Days 18    
Growing Degree Days 33 (Base 50)    
Moisture  
Dew Point 74 °F    
Average Humidity 79    
Maximum Humidity 96    
Minimum Humidity 43    
Precipitation  
Precipitation 0.00 in 0.04 in - ()
Sea Level Pressure  
Sea Level Pressure 29.84 in    
Wind  
Wind Speed 2 mph ()    
Max Wind Speed 12 mph    
Max Gust Speed -    
Visibility 8.2 miles    
Events      
Averages and records for this station are not official NWS values.
T = Trace of Precipitation, MM = Missing Value Source: Averaged Metar Reports

Daily Weather History Graph

Daily Weather History Graph

Search for Another Location

Airport or City:

Trip Planner

Search our weather history database for the weather conditions in past years. The results will help you decide how hot, cold, wet, or windy it might be!

Date:

Astronomy

Nov. 15, 2013 Rise Set
Actual Time 6:43 AM CST 6:03 PM CST
Civil Twilight 6:20 AM CST 6:26 PM CST
Nautical Twilight 5:54 AM CST 6:52 PM CST
Astronomical Twilight 5:28 AM CST 7:18 PM CST
Moon 4:50 PM CST (11/15) 4:56 AM CST (11/15)
Length of Visible Light 12h 06m
Length of Day
11h 20m
Waxing Gibbous, 96% of the Moon is Illuminated
Nov 15
Waxing Gibbous
Nov 17
Full
Nov 25
Last Quarter
Dec 2
New
Dec 9
First Quarter

Hourly Weather History & Observations

Time (CST) Temp. Heat Index Dew Point Humidity Pressure Visibility Wind Dir Wind Speed Gust Speed Precip Events Conditions
12:45 AM 78.8 °F - 77.0 °F 94% 29.86 in 8.0 mi Calm Calm - N/A   Scattered Clouds
1:45 AM 78.8 °F - 77.0 °F 94% 29.85 in 8.0 mi Calm Calm - N/A   Scattered Clouds
2:45 AM 78.8 °F - 77.0 °F 94% 29.83 in 8.0 mi Calm Calm - N/A   Scattered Clouds
2:48 AM 78 °F - 77 °F 96% 29.84 in 6 mi North 2.2 mph - -   Scattered Clouds
3:58 AM 77.0 °F - 75.2 °F 94% 29.83 in 8.0 mi Calm Calm - N/A   Scattered Clouds
4:45 AM 77.0 °F - 75.2 °F 94% 29.82 in 8.0 mi Calm Calm - N/A   Scattered Clouds
5:45 AM 77.0 °F - 73.4 °F 89% 29.83 in 8.0 mi Calm Calm - N/A   Scattered Clouds
5:48 AM 76 °F - 74 °F 93% 29.83 in 6 mi NNW 2.2 mph - -   Scattered Clouds
6:45 AM 75.2 °F - 73.4 °F 94% 29.82 in 8.0 mi Calm Calm - N/A   Scattered Clouds
7:47 AM 78.8 °F - 73.4 °F 83% 29.85 in 8.0 mi Calm Calm - N/A   Mostly Cloudy
8:44 AM 80.6 °F 84.6 °F 71.6 °F 74% 29.88 in 8.0 mi Calm Calm - N/A   Mostly Cloudy
8:50 AM 81 °F - 74 °F 74% 29.88 in 12 mi NNW 2.2 mph - -   Clear
9:46 AM 82.4 °F 87.2 °F 71.6 °F 70% 29.89 in 8.0 mi Calm Calm - N/A   Mostly Cloudy
10:45 AM 84.2 °F 89.6 °F 71.6 °F 66% 29.89 in 8.0 mi Calm Calm - N/A   Mostly Cloudy
11:47 AM 86.0 °F 93.4 °F 73.4 °F 66% 29.83 in 8.0 mi WSW 5.8 mph - N/A   Mostly Cloudy
11:50 AM 90 °F - 71 °F 43% 29.87 in 12 mi NNE 2.2 mph - -   Scattered Clouds
12:43 PM 86.0 °F 93.4 °F 73.4 °F 66% 29.84 in 8.0 mi WSW 8.1 mph - N/A   Mostly Cloudy
1:44 PM 84.2 °F 92.3 °F 75.2 °F 74% 29.82 in 8.0 mi West 10.4 mph - N/A   Mostly Cloudy
2:46 PM 86.0 °F 96.9 °F 77.0 °F 74% 29.82 in 8.0 mi WSW 10.4 mph - N/A   Mostly Cloudy
2:50 PM 88 °F - 77 °F 63% 29.81 in 12 mi SW 6.7 mph - -   Scattered Clouds
3:43 PM 86.0 °F 95.1 °F 75.2 °F 70% - 8.0 mi West 10.4 mph - N/A   Mostly Cloudy
4:47 PM 86.0 °F 95.1 °F 75.2 °F 70% 29.78 in 8.0 mi West 11.5 mph - N/A   Mostly Cloudy
5:45 PM 82.4 °F 89.5 °F 75.2 °F 79% 29.80 in 8.0 mi West 8.1 mph - N/A   Mostly Cloudy
5:50 PM 84 °F - 75 °F 69% 29.81 in 12 mi West 4.5 mph - -   Scattered Clouds
6:45 PM 82.4 °F 88.2 °F 73.4 °F 74% 29.81 in 8.0 mi West 10.4 mph - N/A   Mostly Cloudy
7:45 PM 82.4 °F 87.2 °F 71.6 °F 70% 29.83 in 8.0 mi West 5.8 mph - N/A   Mostly Cloudy
8:45 PM 82.4 °F 88.2 °F 73.4 °F 74% 29.87 in 8.0 mi WNW 3.5 mph - N/A   Mostly Cloudy
8:50 PM 80 °F - 74 °F 76% 29.87 in 6 mi West 2.2 mph - -   Clear
9:43 PM 82.4 °F 88.2 °F 73.4 °F 74% 29.88 in 8.0 mi NW 3.5 mph - N/A   Mostly Cloudy
10:45 PM 78.8 °F - 75.2 °F 89% 29.88 in 8.0 mi North 3.5 mph - N/A   Mostly Cloudy
11:45 PM 78 °F - 76 °F 91% 29.87 in 6 mi NNW 2.2 mph - -   Partly Cloudy
11:45 PM 78.8 °F - 75.2 °F 89% 29.88 in 8.0 mi North 3.5 mph - N/A   Mostly Cloudy